Regional Weather Roundup
Issued by NWS Charleston, SC

Current Version | Previous Version | Graphics & Text | Print | Product List | Glossary On
Versions: 1 2 3 4 5 6 7 8 9 10 11 12 13 14 15 16 17 18 19 20 21 22 23 24 25 26 27 28 29 30 31 32 33 34 35 36 37 38 39 40 41 42 43 44 45 46 47 48 49 50
000
ASUS42 KCHS 192110
RWRCHS
REGIONAL WEATHER ROUNDUP
NATIONAL WEATHER SERVICE CHARLESTON SC
400 PM EST FRI DEC 19 2014

NOTE: "FAIR" INDICATES FEW OR NO CLOUDS BELOW 12,000 FEET WITH NO
SIGNIFICANT WEATHER AND/OR OBSTRUCTIONS TO VISIBILITY.

NOT ALL STATIONS ARE QUALITY CONTROLLED BY THE NATIONAL
WEATHER SERVICE. USE DATA WITH CAUTION...ESPECIALLY
DEWPOINT OBSERVATIONS.

SCZ027-030-031-034>040-042>050-192200-
...SOUTHEAST SOUTH CAROLINA...

CITY           SKY/WX    TMP DP  RH WIND       PRES   REMARKS
N CHARLESTON   PTSUNNY   59  45  59 SE6       30.11R
WATERFRONT PRK   N/A     57 N/A N/A E8          N/A
MOUNT PLEASANT LGT RAIN  57  45  62 CALM      30.11R
PINOPOLIS        N/A     61  50  67 N5        30.00S
MONCKS CORNER  FAIR      61  46  59 CALM      30.10R
SUMMERVILLE    NOT AVBL
BEAUFORT MCAS  PTSUNNY   60  43  53 E6        30.09S
BEAUFORT ARPT  FAIR      61  46  59 CALM      30.09S
HILTON HEAD IS MOSUNNY   57  46  67 CALM      30.11S
WALTERBORO     PTCLDY    61  37  41 S3        30.10S
ALLENDALE      FAIR      61  41  48 CALM      30.08S

...SOUTHERN MIDLANDS AND PEE DEE...

CITY           SKY/WX    TMP DP  RH WIND       PRES   REMARKS
GEORGETOWN     NOT AVBL
KINGSTREE      NOT AVBL
ORANGEBURG     MOSUNNY   60  40  47 E3        30.09F
BARNWELL       FAIR      63  41  45 CALM      30.09R
AIKEN          FAIR      61  39  44 CALM      30.11R
MANNING        NOT AVBL
COLUMBIA       MOSUNNY   61  37  41 CALM      30.09F
SUMTER         SUNNY     58  34  40 E1        30.09S
FLORENCE       SUNNY     59  30  33 CALM      30.11R
MYRTLE BEACH   SUNNY     55  36  47 SE8       30.14R
N MYRTLE BEACH SUNNY     55  37  50 S5        30.11S

$$

GAZ063-065-086>088-099>101-113>116-118-119-134>141-150-192200-
...SOUTHEAST GEORGIA...

CITY           SKY/WX    TMP DP  RH WIND       PRES   REMARKS
SAVANNAH ARPT  PTSUNNY   62  38  40 W6        30.10F
HUNTER AAF     CLOUDY    63  38  40 SW3       30.08S
FORT STEWART   CLOUDY    62  41  46 CALM      30.08F
STATESBORO     PTSUNNY   61  43  51 CALM      30.09R
SYLVANIA       MOCLDY    61  44  53 CALM      30.10R
CLAXTON        FAIR      59  46  63 CALM      30.10R

...CSRA...CENTRAL AND FAR SOUTHEAST GEORGIA...

CITY           SKY/WX    TMP DP  RH WIND       PRES   REMARKS
THOMSON        MOSUNNY   62  44  50 N3        30.13S
AUGUSTA-BUSH   PTSUNNY   62  38  40 W3        30.09R
AUGUSTA-DANIEL PTSUNNY   62  38  40 CALM      30.09R
SWAINSBORO     FAIR      63  45  51 W3        30.10S
VIDALIA        PTSUNNY   61  45  55 SW3       30.10R
EASTMAN        FAIR      60  44  53 CALM      30.12S
HAZLEHURST     FAIR      61  44  52 CALM      30.09F
ALMA           PTSUNNY   64  36  35 CALM      30.09S
WAYCROSS       PTSUNNY   68  39  34 NW3       30.09S
JESUP          FAIR      68  41  37 CALM      30.09S
BAXLEY         FAIR      63  39  42 N3        30.09S
BRUNSWICK      SUNNY     64  36  34 CALM      30.10S
SAINT SIMONS   SUNNY     61  43  51 E6        30.10S

$$

SCZ027-028-034-036>038-045-046-048>050-GAZ119-141-192200-
...LAKE AND SUPPLEMENTAL COASTAL OBSERVATIONS...

STATION/POSITION TIME  TEMP    WIND        PRES    WAVE   SWELL
                       AIR SEA DIR/SP/G            HT/PER HT/PER/DIR
                 (UTC) (F)     (DEG/KT/KT) (MB)    (FT/S) (FT/S/D)
UPR LAKE MARION  NOT AVBL
WINYAH BAY       2000   54      70/  7     1019.0S
LAKE MURRAY      2000   58     210/  4/  4 1018.6S
ACE BASIN NERRS  2000   59     220/  1     1019.0S
FORT PULASKI     2100   60 56  130/  5/  6 1019.5S
SAPELO ISLAND    2000   66     230/  2     1019.0S

$$

ANZ835-935-AMZ111-154-330-350-352-354-370-450-454-472-192200-
...C-MAN AND BUOY OBSERVATIONS...

STATION/POSITION TIME  TEMP    WIND        PRES    WAVE   SWELL
                       AIR SEA DIR/SP/G            HT/PER HT/PER/DIR
                 (UTC) (F)     (DEG/KT/KT) (MB)    (FT/S) (FT/S/D)
BUOY 41004       2100   62 69   50/  4/  6 1018.9R   2/10   2/10
BUOY 41008       2100   57 58   30/  6/  6 1019.2R   1/ 9   2/100/ 9
FOLLY BEACH CMAN 2000   56      60/ 10/ 11 1019.8S
CAPERS NEARSHORE 2000   55      60/ 12/ 14   N/A
FRIPP NEARSHORE  NOT AVBL


STATION/POSITION TIME  TEMP    WIND        PRES    WAVE   SWELL
                       AIR SEA DIR/SP/G            HT/PER HT/PER/DIR
                 (UTC) (F)     (DEG/KT/KT) (MB)    (FT/S) (FT/S/D)
5E ST. MARYS GA  2100      61                N/A     1/10
FRYING PAN BUOY  2100   55 64   40/  8/ 10 1020.5R   2/ 8   2/ 70/ 8
BUOY 41025       2100   48                 1020.3R   3/ 8
CAPE LOOKOUT NC  2000   49      50/  9/ 11 1019.5R
BUOY 41002       2027   67 72   10/  8/ 12 1018.4R   3/ 8   3/ 30/ 8
BUOY 41010       2100   71 76  360/  2/  4 1018.3S   2/12   2/ 70/12
ST AUGUSTINE FL  2100   62     360/  6/  7 1019.6R


$$



USA.gov is the U.S. government's official web portal to all federal, state and local government web resources and services.